PROFILE

 METAR AND TAF INFORMATION
ADDS - METARS form results

(1148 UTC 16 October 2019)
http://aviationweather.gov/metar/data/
 
LFRB 161130Z AUTO 04004KT 360V070 9999 OVC030 13/12 Q1005 NOSIG
LFRB 161100Z AUTO 04003KT 350V070 9999 BKN030 OVC036 13/11 Q1005 NOSIG
TAF LFRB 161100Z 1612/1718 VRB02KT 9999 BKN030 PROB30 TEMPO 1612/1615 -SHRA BECMG 1615/1618 21007KT TEMPO 1620/1718 3000 SHRA SCT010TCU BKN014 BECMG 1708/1711 22015G27KT 

 AIRPORT MAP

 RUNWAY INFORMATION
Runway 07L Runway length 2297 ft Runway width 59 ft
Runway elevation 311 ft Runway displaced threshold 0 ft Runway heading 71
Runway 25R Runway length 2297 ft Runway width 59 ft
Runway elevation 317 ft Runway displaced threshold 0 ft Runway heading 251
Runway 07R Runway length 10171 ft Runway width 148 ft
Runway elevation 289 ft Runway displaced threshold 0 ft Runway heading 71
Runway 25L Runway length 10171 ft Runway width 148 ft
Runway elevation 312 ft Runway displaced threshold 984 ft Runway heading 251

 AIRPORT FREQUENCIES
Type APP Name LANDI APP Frequency 122.4 MHZ
Type APP Name IROISE APP Frequency 135.825 MHZ
Type ATIS Name ATIS Frequency 129.35 MHZ
Type TWR Name TWR Frequency 120.1 MHZ

 AIRPORT NEAR NAVIGATION AIDS
Type NDB Name Guipavas Frequency 387 KHZ
Type NDB Name Guipavas Frequency 338 KHZ